When you browse on this site, cookies collect data to enhance your experience and personalize the content and advertising you see.
Visit our Privacy Policy to learn more. By continuing to use the site, you agree to this use of cookies and data.
  • în România
  • Lista ţărilor
  • Pe 7 zile
  • Temperatura apei
  • Hartă satelitară
  • Meteo pe hartă
  • Widget-uri
  • user-avatar
    Intrare

    Meteo pe oră la Zelenaya Niva

    Astăzi, 19 Aprilie, Vineri

    Timp Temperatura Precipitaţii Vânt Presiune Umiditate
    00:00 +3°C° 0 mm 1 m/s 758 mmHg 90%
    01:00 +3°C° 0 mm 1 m/s 759 mmHg 91%
    02:00 +2°C° 0 mm 1 m/s 759 mmHg 91%
    03:00 +2°C° 0 mm 1 m/s 759 mmHg 91%
    04:00 +2°C° 0 mm 1 m/s 759 mmHg 90%
    05:00 +1°C° 0 mm 1 m/s 759 mmHg 90%
    06:00 +3°C° 0 mm 1 m/s 759 mmHg 80%
    07:00 +5°C° 0 mm 1 m/s 760 mmHg 70%
    08:00 +7°C° 0 mm 1 m/s 760 mmHg 60%
    09:00 +9°C° 0 mm 1 m/s 759 mmHg 54%
    10:00 +10°C° 0 mm 1 m/s 759 mmHg 48%
    11:00 +12°C° 0 mm 1 m/s 759 mmHg 42%
    12:00 +12°C° 0 mm 1 m/s 759 mmHg 40%
    13:00 +13°C° 0 mm 1 m/s 758 mmHg 38%
    14:00 +13°C° 0 mm 1 m/s 758 mmHg 37%
    15:00 +13°C° 0 mm 1 m/s 757 mmHg 37%
    16:00 +13°C° 0 mm 1 m/s 757 mmHg 38%
    17:00 +13°C° 0 mm 1 m/s 756 mmHg 39%
    18:00 +11°C° 0 mm 1 m/s 756 mmHg 44%
    19:00 +10°C° 0 mm 1 m/s 756 mmHg 50%
    20:00 +8°C° 0 mm 1 m/s 756 mmHg 55%
    21:00 +8°C° 0 mm 1 m/s 755 mmHg 58%
    22:00 +7°C° 0 mm 2 m/s 755 mmHg 60%
    23:00 +6°C° 0 mm 2 m/s 755 mmHg 62%

    Mâine, 20 Aprilie, Sâmbătă

    Timp Temperatura Precipitaţii Vânt Presiune Umiditate
    00:00 +6°C° 0.4 mm 2 m/s 755 mmHg 68%
    01:00 +6°C° 0.4 mm 2 m/s 754 mmHg 73%
    02:00 +6°C° 0.4 mm 2 m/s 754 mmHg 79%
    03:00 +6°C° 0.3 mm 2 m/s 754 mmHg 83%
    04:00 +5°C° 0.3 mm 2 m/s 754 mmHg 87%
    05:00 +5°C° 0.3 mm 2 m/s 753 mmHg 91%
    06:00 +6°C° 0.1 mm 2 m/s 753 mmHg 87%
    07:00 +6°C° 0.1 mm 2 m/s 753 mmHg 83%
    08:00 +7°C° 0.1 mm 3 m/s 753 mmHg 79%
    09:00 +8°C° 0.1 mm 3 m/s 753 mmHg 72%
    10:00 +9°C° 0.1 mm 2 m/s 753 mmHg 65%
    11:00 +10°C° 0.1 mm 2 m/s 753 mmHg 57%
    12:00 +10°C° 0.1 mm 2 m/s 753 mmHg 56%
    13:00 +10°C° 0.1 mm 2 m/s 753 mmHg 54%
    14:00 +10°C° 0.1 mm 2 m/s 753 mmHg 52%
    15:00 +10°C° 0.1 mm 2 m/s 753 mmHg 53%
    16:00 +10°C° 0.1 mm 2 m/s 753 mmHg 55%
    17:00 +10°C° 0.1 mm 2 m/s 753 mmHg 56%
    18:00 +8°C° 0 mm 2 m/s 754 mmHg 64%
    19:00 +6°C° 0 mm 2 m/s 754 mmHg 72%
    20:00 +5°C° 0 mm 2 m/s 754 mmHg 79%
    21:00 +4°C° 0 mm 2 m/s 754 mmHg 83%
    22:00 +4°C° 0 mm 2 m/s 755 mmHg 86%
    23:00 +3°C° 0 mm 2 m/s 755 mmHg 90%

    Poimâine, 21 Aprilie, Duminică

    Timp Temperatura Precipitaţii Vânt Presiune Umiditate
    00:00 +4°C° 0 mm 1 m/s 755 mmHg 91%
    01:00 +4°C° 0 mm 1 m/s 755 mmHg 93%
    02:00 +3°C° 0 mm 1 m/s 755 mmHg 95%
    03:00 +3°C° 0 mm 1 m/s 756 mmHg 95%
    04:00 +3°C° 0 mm 1 m/s 756 mmHg 95%
    05:00 +3°C° 0 mm 1 m/s 756 mmHg 95%
    06:00 +4°C° 0 mm 1 m/s 756 mmHg 88%
    07:00 +5°C° 0 mm 2 m/s 757 mmHg 81%
    08:00 +7°C° 0 mm 2 m/s 757 mmHg 73%
    09:00 +9°C° 0 mm 2 m/s 757 mmHg 67%
    10:00 +10°C° 0 mm 2 m/s 757 mmHg 60%
    11:00 +13°C° 0 mm 2 m/s 757 mmHg 53%
    12:00 +13°C° 0 mm 2 m/s 757 mmHg 52%
    13:00 +14°C° 0 mm 1 m/s 756 mmHg 51%
    14:00 +14°C° 0 mm 1 m/s 756 mmHg 50%
    15:00 +14°C° 0 mm 1 m/s 756 mmHg 51%
    16:00 +14°C° 0 mm 1 m/s 756 mmHg 52%
    17:00 +13°C° 0 mm 0 m/s 756 mmHg 53%
    18:00 +11°C° 0 mm 0 m/s 756 mmHg 60%
    19:00 +9°C° 0 mm 0 m/s 756 mmHg 67%
    20:00 +7°C° 0 mm 0 m/s 757 mmHg 74%
    21:00 +7°C° 0 mm 0 m/s 757 mmHg 77%
    22:00 +6°C° 0 mm 0 m/s 757 mmHg 79%
    23:00 +6°C° 0 mm 0 m/s 757 mmHg 81%

    22 Aprilie, Luni

    Timp Temperatura Precipitaţii Vânt Presiune Umiditate
    00:00 +6°C° 0 mm 0 m/s 757 mmHg 83%
    01:00 +5°C° 0 mm 0 m/s 757 mmHg 85%
    02:00 +5°C° 0 mm 0 m/s 757 mmHg 87%
    03:00 +5°C° 0 mm 0 m/s 757 mmHg 87%
    04:00 +6°C° 0 mm 1 m/s 758 mmHg 87%
    05:00 +5°C° 0 mm 1 m/s 758 mmHg 88%
    06:00 +8°C° 0 mm 1 m/s 758 mmHg 79%
    07:00 +10°C° 0 mm 1 m/s 758 mmHg 71%
    08:00 +12°C° 0 mm 1 m/s 758 mmHg 62%
    09:00 +13°C° 0 mm 1 m/s 758 mmHg 54%
    10:00 +15°C° 0 mm 1 m/s 758 mmHg 47%
    11:00 +16°C° 0 mm 1 m/s 758 mmHg 39%
    12:00 +18°C° 0 mm 1 m/s 758 mmHg 38%
    13:00 +17°C° 0 mm 2 m/s 757 mmHg 36%
    14:00 +17°C° 0 mm 2 m/s 757 mmHg 35%
    15:00 +17°C° 0 mm 2 m/s 757 mmHg 37%
    16:00 +17°C° 0 mm 2 m/s 757 mmHg 40%
    17:00 +18°C° 0 mm 1 m/s 756 mmHg 43%
    18:00 +15°C° 0 mm 1 m/s 757 mmHg 49%
    19:00 +13°C° 0 mm 1 m/s 757 mmHg 55%
    20:00 +11°C° 0 mm 1 m/s 757 mmHg 61%
    21:00 +10°C° 0 mm 1 m/s 757 mmHg 63%
    22:00 +10°C° 0 mm 1 m/s 757 mmHg 65%
    23:00 +9°C° 0 mm 1 m/s 758 mmHg 67%

    23 Aprilie, Marţi

    Timp Temperatura Precipitaţii Vânt Presiune Umiditate
    00:00 +9°C° 0 mm 1 m/s 758 mmHg 68%
    01:00 +8°C° 0 mm 1 m/s 758 mmHg 68%
    02:00 +8°C° 0 mm 1 m/s 758 mmHg 69%
    03:00 +8°C° 0 mm 1 m/s 758 mmHg 70%
    04:00 +7°C° 0 mm 2 m/s 758 mmHg 72%
    05:00 +6°C° 0 mm 2 m/s 759 mmHg 73%
    06:00 +8°C° 0 mm 2 m/s 759 mmHg 68%
    07:00 +10°C° 0 mm 2 m/s 759 mmHg 64%
    08:00 +13°C° 0 mm 2 m/s 759 mmHg 59%
    09:00 +15°C° 0 mm 2 m/s 759 mmHg 53%
    10:00 +16°C° 0 mm 3 m/s 759 mmHg 47%
    11:00 +18°C° 0 mm 3 m/s 759 mmHg 41%
    12:00 +18°C° 0 mm 3 m/s 759 mmHg 39%
    13:00 +19°C° 0 mm 3 m/s 758 mmHg 37%
    14:00 +19°C° 0 mm 3 m/s 758 mmHg 36%
    15:00 +19°C° 0 mm 3 m/s 758 mmHg 38%
    16:00 +18°C° 0 mm 2 m/s 758 mmHg 40%
    17:00 +18°C° 0 mm 2 m/s 758 mmHg 42%
    18:00 +16°C° 0 mm 2 m/s 758 mmHg 48%
    19:00 +14°C° 0 mm 1 m/s 758 mmHg 53%
    20:00 +12°C° 0 mm 1 m/s 758 mmHg 59%
    21:00 +11°C° 0 mm 1 m/s 758 mmHg 61%
    22:00 +11°C° 0 mm 1 m/s 758 mmHg 62%
    23:00 +10°C° 0 mm 1 m/s 759 mmHg 64%

    24 Aprilie, Miercuri

    Timp Temperatura Precipitaţii Vânt Presiune Umiditate
    00:00 +10°C° 0 mm 1 m/s 759 mmHg 65%
    01:00 +9°C° 0 mm 1 m/s 759 mmHg 67%
    02:00 +9°C° 0 mm 1 m/s 759 mmHg 68%
    03:00 +9°C° 0 mm 1 m/s 760 mmHg 69%
    04:00 +9°C° 0 mm 1 m/s 760 mmHg 69%
    05:00 +8°C° 0 mm 1 m/s 760 mmHg 70%
    06:00 +11°C° 0 mm 1 m/s 760 mmHg 63%
    07:00 +13°C° 0 mm 1 m/s 760 mmHg 56%
    08:00 +15°C° 0 mm 1 m/s 760 mmHg 50%
    09:00 +16°C° 0 mm 1 m/s 760 mmHg 45%
    10:00 +19°C° 0 mm 1 m/s 760 mmHg 40%
    11:00 +20°C° 0 mm 1 m/s 760 mmHg 35%
    12:00 +21°C° 0 mm 1 m/s 760 mmHg 34%
    13:00 +21°C° 0 mm 1 m/s 759 mmHg 33%
    14:00 +22°C° 0 mm 1 m/s 759 mmHg 32%
    15:00 +21°C° 0 mm 1 m/s 759 mmHg 33%
    16:00 +21°C° 0 mm 1 m/s 759 mmHg 35%
    17:00 +19°C° 0 mm 0 m/s 759 mmHg 37%
    18:00 +17°C° 0 mm 0 m/s 759 mmHg 42%
    19:00 +15°C° 0 mm 0 m/s 759 mmHg 47%
    20:00 +12°C° 0 mm 0 m/s 759 mmHg 52%
    21:00 +12°C° 0 mm 0 m/s 759 mmHg 54%
    22:00 +12°C° 0 mm 1 m/s 759 mmHg 56%
    23:00 +12°C° 0 mm 1 m/s 759 mmHg 58%
    Arată mai mult